When you browse on this site, cookies collect data to enhance your experience and personalize the content and advertising you see.
Visit our Privacy Policy to learn more. By continuing to use the site, you agree to this use of cookies and data.
  • In Hungary
  • List of Countries
  • For 7 days
  • Water Temperature
  • Weather Map
  • News
  • Weather Widgets
  • user-avatar
    Login

    Hourly Weather Jharsuguda

    Today, 18 November, Monday

    Time Temperature Precipitation Wind Pressure Humidity
    00:00 +20°C° 0 mm 0 mps 742 mmHg 58%
    01:00 +19°C° 0 mm 0 mps 742 mmHg 59%
    02:00 +21°C° 0 mm 1 mps 742 mmHg 60%
    03:00 +20°C° 0 mm 1 mps 742 mmHg 62%
    04:00 +20°C° 0 mm 1 mps 742 mmHg 63%
    05:00 +19°C° 0 mm 1 mps 742 mmHg 64%
    06:00 +19°C° 0 mm 1 mps 742 mmHg 70%
    07:00 +21°C° 0 mm 1 mps 743 mmHg 66%
    08:00 +23°C° 0 mm 1 mps 743 mmHg 61%
    09:00 +24°C° 0 mm 2 mps 744 mmHg 56%
    10:00 +26°C° 0 mm 2 mps 744 mmHg 52%
    11:00 +28°C° 0 mm 2 mps 743 mmHg 47%
    12:00 +30°C° 0 mm 2 mps 744 mmHg 40%
    13:00 +30°C° 0 mm 2 mps 743 mmHg 39%
    14:00 +31°C° 0 mm 2 mps 742 mmHg 37%
    15:00 +31°C° 0 mm 2 mps 742 mmHg 36%
    16:00 +29°C° 0 mm 1 mps 742 mmHg 41%
    17:00 +27°C° 0 mm 1 mps 742 mmHg 46%
    18:00 +25°C° 0 mm 1 mps 742 mmHg 51%
    19:00 +25°C° 0 mm 1 mps 742 mmHg 53%
    20:00 +24°C° 0 mm 1 mps 743 mmHg 55%
    21:00 +23°C° 0 mm 1 mps 743 mmHg 57%
    22:00 +23°C° 0 mm 1 mps 743 mmHg 59%
    23:00 +22°C° 0 mm 1 mps 743 mmHg 60%

    Tomorrow, 19 November, Tuesday

    Time Temperature Precipitation Wind Pressure Humidity
    00:00 +21°C° 0 mm 1 mps 742 mmHg 62%
    01:00 +21°C° 0 mm 1 mps 742 mmHg 64%
    02:00 +20°C° 0 mm 1 mps 742 mmHg 65%
    03:00 +20°C° 0 mm 1 mps 741 mmHg 67%
    04:00 +20°C° 0 mm 1 mps 741 mmHg 67%
    05:00 +19°C° 0 mm 1 mps 742 mmHg 68%
    06:00 +19°C° 0 mm 1 mps 742 mmHg 68%
    07:00 +20°C° 0 mm 2 mps 742 mmHg 63%
    08:00 +21°C° 0 mm 2 mps 743 mmHg 58%
    09:00 +24°C° 0 mm 2 mps 744 mmHg 53%
    10:00 +26°C° 0 mm 2 mps 743 mmHg 49%
    11:00 +27°C° 0 mm 2 mps 743 mmHg 44%
    12:00 +29°C° 0 mm 1 mps 743 mmHg 40%
    13:00 +29°C° 0 mm 1 mps 742 mmHg 38%
    14:00 +30°C° 0 mm 1 mps 741 mmHg 36%
    15:00 +30°C° 0 mm 1 mps 741 mmHg 34%
    16:00 +29°C° 0 mm 1 mps 741 mmHg 39%
    17:00 +27°C° 0 mm 1 mps 741 mmHg 43%
    18:00 +25°C° 0 mm 1 mps 741 mmHg 47%
    19:00 +24°C° 0 mm 1 mps 741 mmHg 50%
    20:00 +23°C° 0 mm 1 mps 742 mmHg 52%
    21:00 +22°C° 0 mm 1 mps 743 mmHg 54%
    22:00 +22°C° 0 mm 1 mps 742 mmHg 56%
    23:00 +19°C° 0 mm 0 mps 742 mmHg 57%

    Day after tomorrow, 20 November, Wednesday

    Time Temperature Precipitation Wind Pressure Humidity
    00:00 +19°C° 0 mm 0 mps 742 mmHg 59%
    01:00 +21°C° 0 mm 1 mps 742 mmHg 60%
    02:00 +20°C° 0 mm 1 mps 741 mmHg 61%
    03:00 +19°C° 0 mm 2 mps 741 mmHg 62%
    04:00 +18°C° 0 mm 2 mps 741 mmHg 64%
    05:00 +19°C° 0 mm 1 mps 741 mmHg 65%
    06:00 +19°C° 0 mm 1 mps 741 mmHg 66%
    07:00 +20°C° 0 mm 1 mps 742 mmHg 63%
    08:00 +22°C° 0 mm 1 mps 743 mmHg 60%
    09:00 +23°C° 0 mm 1 mps 744 mmHg 56%
    10:00 +25°C° 0 mm 1 mps 743 mmHg 52%
    11:00 +27°C° 0 mm 1 mps 743 mmHg 48%
    12:00 +29°C° 0 mm 1 mps 742 mmHg 43%
    13:00 +29°C° 0 mm 1 mps 742 mmHg 41%
    14:00 +30°C° 0 mm 1 mps 741 mmHg 39%
    15:00 +30°C° 0 mm 1 mps 741 mmHg 37%
    16:00 +28°C° 0 mm 1 mps 741 mmHg 42%
    17:00 +24°C° 0 mm 0 mps 741 mmHg 47%
    18:00 +23°C° 0 mm 0 mps 741 mmHg 52%
    19:00 +24°C° 0 mm 1 mps 742 mmHg 54%
    20:00 +23°C° 0 mm 1 mps 742 mmHg 56%
    21:00 +23°C° 0 mm 1 mps 743 mmHg 58%
    22:00 +22°C° 0 mm 1 mps 743 mmHg 60%
    23:00 +22°C° 0 mm 1 mps 743 mmHg 62%

    21 November, Thursday

    Time Temperature Precipitation Wind Pressure Humidity
    00:00 +19°C° 0 mm 0 mps 742 mmHg 63%
    01:00 +21°C° 0 mm 1 mps 742 mmHg 64%
    02:00 +21°C° 0 mm 1 mps 742 mmHg 66%
    03:00 +19°C° 0 mm 2 mps 742 mmHg 67%
    04:00 +20°C° 0 mm 1 mps 742 mmHg 68%
    05:00 +20°C° 0 mm 1 mps 742 mmHg 69%
    06:00 +19°C° 0 mm 1 mps 742 mmHg 71%
    07:00 +21°C° 0 mm 1 mps 743 mmHg 67%
    08:00 +21°C° 0 mm 2 mps 743 mmHg 63%
    09:00 +24°C° 0 mm 2 mps 744 mmHg 59%
    10:00 +25°C° 0 mm 1 mps 744 mmHg 54%
    11:00 +27°C° 0 mm 1 mps 744 mmHg 50%
    12:00 +29°C° 0 mm 1 mps 743 mmHg 45%
    13:00 +29°C° 0 mm 1 mps 743 mmHg 43%
    14:00 +30°C° 0 mm 1 mps 742 mmHg 41%
    15:00 +30°C° 0 mm 1 mps 741 mmHg 39%
    16:00 +28°C° 0 mm 1 mps 741 mmHg 44%
    17:00 +27°C° 0 mm 1 mps 741 mmHg 48%
    18:00 +25°C° 0 mm 1 mps 741 mmHg 53%
    19:00 +24°C° 0 mm 1 mps 742 mmHg 55%
    20:00 +24°C° 0 mm 1 mps 742 mmHg 57%
    21:00 +23°C° 0 mm 1 mps 743 mmHg 59%
    22:00 +23°C° 0 mm 1 mps 743 mmHg 61%
    23:00 +22°C° 0 mm 1 mps 743 mmHg 63%

    22 November, Friday

    Time Temperature Precipitation Wind Pressure Humidity
    00:00 +19°C° 0 mm 0 mps 742 mmHg 65%
    01:00 +21°C° 0 mm 1 mps 742 mmHg 66%
    02:00 +21°C° 0 mm 1 mps 742 mmHg 67%
    03:00 +20°C° 0 mm 1 mps 742 mmHg 68%
    04:00 +20°C° 0 mm 1 mps 742 mmHg 69%
    05:00 +19°C° 0 mm 1 mps 742 mmHg 70%
    06:00 +19°C° 0 mm 1 mps 743 mmHg 70%
    07:00 +21°C° 0 mm 1 mps 743 mmHg 66%
    08:00 +22°C° 0 mm 1 mps 744 mmHg 61%
    09:00 +23°C° 0 mm 1 mps 744 mmHg 57%
    10:00 +25°C° 0 mm 1 mps 744 mmHg 53%
    11:00 +27°C° 0 mm 1 mps 744 mmHg 49%
    12:00 +27°C° 0 mm 0 mps 743 mmHg 45%
    13:00 +29°C° 0 mm 1 mps 743 mmHg 43%
    14:00 +30°C° 0 mm 1 mps 742 mmHg 41%
    15:00 +30°C° 0 mm 1 mps 742 mmHg 40%
    16:00 +28°C° 0 mm 1 mps 742 mmHg 44%
    17:00 +26°C° 0 mm 1 mps 742 mmHg 49%
    18:00 +23°C° 0 mm 0 mps 742 mmHg 53%
    19:00 +22°C° 0 mm 0 mps 742 mmHg 56%
    20:00 +21°C° 0 mm 0 mps 742 mmHg 58%
    21:00 +21°C° 0 mm 0 mps 743 mmHg 60%
    22:00 +22°C° 0 mm 1 mps 743 mmHg 61%
    23:00 +22°C° 0 mm 1 mps 743 mmHg 63%

    23 November, Saturday

    Time Temperature Precipitation Wind Pressure Humidity
    00:00 +21°C° 0 mm 1 mps 743 mmHg 64%
    01:00 +21°C° 0 mm 1 mps 743 mmHg 65%
    02:00 +20°C° 0 mm 1 mps 742 mmHg 66%
    03:00 +20°C° 0 mm 1 mps 742 mmHg 67%
    04:00 +19°C° 0 mm 1 mps 742 mmHg 67%
    05:00 +19°C° 0 mm 1 mps 742 mmHg 67%
    06:00 +19°C° 0 mm 1 mps 743 mmHg 67%
    07:00 +20°C° 0 mm 1 mps 743 mmHg 63%
    08:00 +22°C° 0 mm 1 mps 743 mmHg 59%
    09:00 +23°C° 0 mm 1 mps 744 mmHg 55%
    10:00 +25°C° 0 mm 1 mps 744 mmHg 51%
    11:00 +27°C° 0 mm 1 mps 743 mmHg 46%
    12:00 +29°C° 0 mm 1 mps 743 mmHg 42%
    13:00 +29°C° 0 mm 1 mps 743 mmHg 40%
    14:00 +29°C° 0 mm 1 mps 742 mmHg 38%
    15:00 +30°C° 0 mm 1 mps 741 mmHg 36%
    16:00 +28°C° 0 mm 1 mps 741 mmHg 41%
    17:00 +26°C° 0 mm 1 mps 741 mmHg 46%
    18:00 +22°C° 0 mm 0 mps 741 mmHg 51%
    19:00 +22°C° 0 mm 0 mps 742 mmHg 53%
    20:00 +21°C° 0 mm 0 mps 742 mmHg 55%
    21:00 +20°C° 0 mm 0 mps 743 mmHg 57%
    22:00 +20°C° 0 mm 0 mps 742 mmHg 58%
    23:00 +19°C° 0 mm 0 mps 742 mmHg 59%
    Show more